Regional Weather Roundup
Issued by NWS

Home | Current Version | Previous Version | Text Only | Print | Product List | Glossary On
Versions: 1 2 3 4 5 6 7 8 9 10 11 12 13 14 15 16 17 18 19 20 21 22 23 24 25 26 27 28 29 30 31 32 33 34 35 36 37 38 39 40 41 42 43 44 45 46 47 48 49 50
014
ASUS43 KDMX 072303
RWRIA

WEATHER ROUNDUP FOR IOWA
NATIONAL WEATHER SERVICE DES MOINES IA
500 PM CST SUN FEB 07 2016

NOTE: "FAIR" INDICATES FEW OR NO CLOUDS BELOW 12,000 FEET WITH NO
SIGNIFICANT WEATHER AND/OR OBSTRUCTIONS TO VISIBILITY.

* - THESE STATIONS ARE NOT NWS STATIONS...THUS NOT UNDER NWS
QUALITY CONTROL.  THEY ALSO DO NOT REPORT WEATHER SUCH
AS PRECIPITATION OR FOG.

IAZ001>003-012>014-020>022-031>034-043>046-080000-
   NORTHWEST IOWA

CITY           SKY/WX    TMP DP  RH WIND       PRES   REMARKS
CARROLL *      LGT SNOW  34  32  93 W22       29.85S WCI  22
CHEROKEE *     CLOUDY    34  32  93 NW17G25   29.85R WCI  23
DENISON *      LGT SNOW  34  32  93 W17G26    29.87R WCI  23
LE MARS *      CLOUDY    34  30  86 NW26G37   29.90R WCI  21
ORANGE CITY *  CLOUDY    34  28  80 NW26G36   29.86R WCI  21
SHELDON *      FLURRIES  32  28  86 NW28G35   29.83R WCI  18
SIOUX CITY     CLOUDY    36  27  69 NW29G36   29.91R WCI  23
SPENCER        CLOUDY    34  27  75 NW24G36   29.81R WCI  21
STORM LAKE *   CLOUDY    34  34 100 NW26      29.83R WCI  21
$$

IAZ055>058-069>071-079>083-090>094-080000-
   SOUTHWEST IOWA

CITY           SKY/WX    TMP DP  RH WIND       PRES   REMARKS
ATLANTIC *     LGT SNOW  34  32  93 W14G24    29.91S WCI  24
AUDUBON *      LGT SNOW  34  30  86 W10G20    29.89S WCI  26
CLARINDA *     MOCLDY    39  28  65 NW24G37   29.98R WCI  28
COUNCIL BLFS * LGT SNOW  34  30  86 NW23G32   29.94F WCI  22
CRESTON *      MOCLDY    37  28  70 NW35G46   29.90S WCI  24
HARLAN  *      LGT SNOW  34  32  93 W22G30    29.94S WCI  22
LAMONI         CLOUDY    40  26  57 W17G28    29.89F WCI  31
RED OAK *      CLOUDY    36  32  87 NW13G24   29.96R WCI  27
SHENANDOAH *   MIX PCPN  36  32  87 NW18G33   29.99R WCI  25
$$

IAZ047>049-059>061-072>074-084-080000-
   CENTRAL IOWA

CITY           SKY/WX    TMP DP  RH WIND       PRES   REMARKS
AMES           MOCLDY    35  29  78 W22G32    29.83R WCI  23
ANKENY *       CLOUDY    37  30  75 W18       29.85R WCI  27
BOONE *        CLOUDY    36  30  80 W17G26    29.81S WCI  25
CHARITON *     CLOUDY    41  27  56 W20G28    29.87S
DES MOINES     FLURRIES  37  29  72 NW23G32   29.86R WCI  26
GRINNELL*      CLOUDY    37  28  70 W15G21    29.83S WCI  28
KNOXVILLE *    CLOUDY    37  27  65 W12       29.84F WCI  30
MARSHALLTOWN   PTCLDY    35  28  75 W17G25    29.80S WCI  25
NEWTON *       MIX PCPN  37  28  70 W16G22    29.83S WCI  28
PELLA *        CLEAR     39  25  57 W17G24    29.86S WCI  30
$$

IAZ004>006-015-016-023>025-035-036-080000-
   NORTH CENTRAL IOWA

CITY           SKY/WX    TMP DP  RH WIND       PRES   REMARKS
ALGONA *       LGT SNOW  34  32  93 W20       29.77S WCI  22
CLARION *      MOCLDY    34  30  86 W22       29.78S WCI  22
ESTHERVILLE    CLOUDY    33  29  85 NW24G33   29.77R WCI  20
FORT DODGE *   CLOUDY    36  28  75 W14G21    29.81S WCI  27
MASON CITY     LGT SNOW  34  30  85 W21       29.75S FOG     WCI  22
FOREST CITY *  LGT SNOW  32  32 100 W18G24    29.74S WCI  20
WEBSTER CITY * MIX PCPN  36  32  87 W21G26    29.79S WCI  24
IOWA FALLS *     N/A     36  30  80 W17       29.79S WCI  25
$$

IAZ007>011-017>019-026>030-037>042-050>054-066-080000-
   NORTHEAST IOWA

CITY           SKY/WX    TMP DP  RH WIND       PRES   REMARKS
CEDAR RAPIDS   CLEAR     37  31  78 W14       29.79S WCI  28
CHARLES CITY * MOCLDY    36  32  87 W17       29.74R WCI  25
CLINTON *      CLEAR     38  29  70 W15       29.80R WCI  29
DECORAH *      PTCLDY    36  28  75 W9G16     29.70R WCI  29
DUBUQUE        CLEAR     35  29  78 W17       29.74S WCI  25
MONTICELLO *   CLEAR     37  30  75 W17       29.77S WCI  28
OELWEIN *      CLEAR     36  30  80 W17       29.75S WCI  25
WATERLOO       CLEAR     37  27  67 W16       29.76S WCI  28
$$

IAZ064-065-067-068-078-080000-
   EAST CENTRAL IOWA

CITY           SKY/WX    TMP DP  RH WIND       PRES   REMARKS
DAVENPORT      MOCLDY    40  29  64 W16       29.81R WCI  31
IOWA CITY      CLEAR     41  29  62 W16       29.84S
MT. PLEASANT * MOCLDY    45  30  57 W15       29.86R
MUSCATINE *    CLEAR     43  28  56 W14G21    29.84S
QUAD CITIES    PTCLDY    41  27  57 W13       29.80S
$$

IAZ062-063-075>077-085>089-095>099-080000-
   SOUTHEAST IOWA

CITY           SKY/WX    TMP DP  RH WIND       PRES   REMARKS
BURLINGTON     CLEAR     43  27  53 NW9G20    29.84R
FAIRFIELD *    PTCLDY    41  27  56 W12G22    29.85S
FORT MADISON * PTCLDY    43  28  56 NW13      29.86S
KEOKUK *       MOCLDY    46  27  46 W18G29    29.86R
OSKALOOSA *    MOCLDY    39  30  70 W13       29.85F WCI  32
OTTUMWA        MOCLDY    41  26  55 W9        29.85F
WASHINGTON *   CLEAR     41  28  60 W16G24    29.85F
$$

ABBREVIATIONS USED IN REMARKS
   TC - TEMPERATURES IN CELSIUS
  WCI - WIND CHILL INDEX
   HX - HEAT INDEX
  VSB - VISIBILITY
$$





USA.gov is the U.S. government's official web portal to all federal, state and local government web resources and services.